TimePDT,TemperatureF,Dew PointF,Humidity,Sea Level PressureIn,VisibilityMPH,Wind Direction,Wind SpeedMPH,Gust SpeedMPH,PrecipitationIn,Events,Conditions,WindDirDegrees,DateUTC
12:58 AM,59.0,48.6,68,29.85,10.0,South,3.5,-,N/A,,Clear,170,2013-08-24 07:58:00
1:58 AM,60.1,49.1,67,29.85,10.0,Calm,Calm,-,N/A,,Clear,0,2013-08-24 08:58:00
2:58 AM,59.9,49.8,69,29.85,10.0,Calm,Calm,-,N/A,,Clear,0,2013-08-24 09:58:00
3:58 AM,58.6,48.7,70,29.84,10.0,ESE,2.3,-,N/A,,Partly Cloudy,120,2013-08-24 10:58:00
4:58 AM,58.3,48.6,70,29.84,10.0,ESE,2.3,-,N/A,,Partly Cloudy,110,2013-08-24 11:58:00
5:58 AM,56.8,46.9,69,29.84,10.0,ESE,6.9,-,N/A,,Partly Cloudy,120,2013-08-24 12:58:00
6:58 AM,58.1,46.2,65,29.85,10.0,ESE,4.6,-,N/A,,Scattered Clouds,120,2013-08-24 13:58:00
7:58 AM,61.0,46.2,58,29.88,10.0,SSE,8.1,-,N/A,,Mostly Cloudy,150,2013-08-24 14:58:00
8:29 AM,60.8,46.4,59,29.88,10.0,East,4.6,-,N/A,Rain,Light Rain,90,2013-08-24 15:29:00
8:47 AM,60.8,48.2,63,29.89,10.0,SE,2.3,-,N/A,,Mostly Cloudy,140,2013-08-24 15:47:00
8:58 AM,62.1,47.8,60,29.88,10.0,SSE,2.3,-,0.00,,Mostly Cloudy,150,2013-08-24 15:58:00
9:37 AM,62.6,46.4,55,29.89,10.0,ENE,2.3,-,N/A,Rain,Light Rain,60,2013-08-24 16:37:00
9:58 AM,60.8,51.1,70,29.88,10.0,North,2.3,-,0.00,Rain,Light Rain,360,2013-08-24 16:58:00
10:06 AM,62.6,50.0,63,29.90,10.0,West,6.9,-,N/A,,Overcast,270,2013-08-24 17:06:00
10:58 AM,69.1,47.5,46,29.85,10.0,East,6.9,-,0.00,,Clear,80,2013-08-24 17:58:00
11:58 AM,74.8,46.4,36,29.84,10.0,Variable,3.5,-,N/A,,Partly Cloudy,0,2013-08-24 18:58:00
12:57 PM,78.8,46.4,32,29.85,10.0,Variable,1.2,-,N/A,Rain,Light Rain,0,2013-08-24 19:57:00
12:58 PM,78.1,46.4,33,29.82,10.0,Variable,2.3,-,N/A,Rain,Light Rain,0,2013-08-24 19:58:00
1:37 PM,80.6,46.4,30,29.85,10.0,Variable,5.8,-,N/A,,Partly Cloudy,0,2013-08-24 20:37:00
1:56 PM,78.8,44.6,30,29.84,10.0,Variable,5.8,-,N/A,Rain,Light Rain,0,2013-08-24 20:56:00
1:57 PM,78.8,44.6,30,29.84,10.0,SSE,8.1,-,N/A,,Clear,150,2013-08-24 20:57:00
1:58 PM,78.8,44.6,30,29.81,10.0,SSE,6.9,-,0.00,,Clear,150,2013-08-24 20:58:00
2:05 PM,78.8,44.6,30,29.84,10.0,Variable,3.5,-,N/A,Rain,Light Rain,0,2013-08-24 21:05:00
2:06 PM,78.8,44.6,30,29.84,10.0,Variable,5.8,-,N/A,,Clear,0,2013-08-24 21:06:00
2:09 PM,78.8,44.6,30,29.84,10.0,ESE,4.6,-,N/A,,Light Drizzle,110,2013-08-24 21:09:00
2:15 PM,80.6,44.6,28,29.84,10.0,Variable,2.3,-,N/A,,Clear,0,2013-08-24 21:15:00
2:18 PM,80.6,44.6,28,29.84,10.0,Variable,2.3,-,N/A,Rain,Light Rain,0,2013-08-24 21:18:00
2:33 PM,80.6,44.6,28,29.83,10.0,SSW,10.4,-,N/A,,Scattered Clouds,210,2013-08-24 21:33:00
2:54 PM,80.6,44.6,28,29.83,10.0,South,8.1,-,N/A,Rain,Light Rain,180,2013-08-24 21:54:00
2:58 PM,80.1,45.1,29,29.80,10.0,South,5.8,-,0.00,Rain,Light Rain,170,2013-08-24 21:58:00
3:03 PM,82.4,44.6,26,29.82,10.0,SSW,5.8,-,N/A,,Scattered Clouds,200,2013-08-24 22:03:00
3:58 PM,81.5,45.5,28,29.78,10.0,South,9.2,-,0.00,,Mostly Cloudy,190,2013-08-24 22:58:00
4:58 PM,81.1,46.9,30,29.77,10.0,WSW,5.8,-,N/A,,Clear,240,2013-08-24 23:58:00
5:58 PM,80.4,46.8,31,29.76,10.0,SSW,4.6,-,N/A,,Clear,210,2013-08-25 00:58:00
6:58 PM,77.7,46.8,33,29.76,10.0,WSW,8.1,-,N/A,,Clear,250,2013-08-25 01:58:00
7:58 PM,70.9,44.4,39,29.79,10.0,WSW,8.1,-,N/A,,Clear,240,2013-08-25 02:58:00
8:58 PM,68.0,43.2,41,29.82,10.0,SW,8.1,-,N/A,,Clear,220,2013-08-25 03:58:00
9:58 PM,65.3,41.2,41,29.83,10.0,WSW,8.1,-,N/A,,Clear,240,2013-08-25 04:58:00
10:58 PM,66.2,42.8,43,29.85,10.0,South,6.9,-,N/A,,Mostly Cloudy,180,2013-08-25 05:58:00
11:58 PM,66.7,43.3,43,29.83,10.0,West,6.9,-,N/A,,Mostly Cloudy,260,2013-08-25 06:58:00